Weather in Novotomnikovo

Russia / Tambov Oblast     53°46′29″N   41°47′03″E
temp.,
°C
wind,
m/s
gust,
m/s
humid.,
%
clouds,
%
prec.,
mm/h
press.,
hPa
HPBL,
m
23 october, sat
sat2300:00+9wsw613660 0.0 1007525
03:00+7sw512740 0.0 1008369
06:00+6sw613715 0.0 1008474
09:00+8sw613635 0.0 1009815
12:00+11wsw8124640 0.0 10101489
15:00+12wsw611458 0.0 10091849
18:00+8wsw41054100 0.0 1010306
21:00+6wsw4107510 0.0 1011424
24 october, sun
sun2400:00+5wsw411755 0.0 1012399
03:00+4wsw510845 0.0 1012428
06:00+3wsw4108696 0.0 1013370
09:00+4wsw51073100 0.0 1014537
12:00+7wsw696491 0.0 10141315
15:00+5w6989100 0.4 1014933
18:00+4w587993 0.1 1015680
21:00+3wnw598396 0.1 1016719
25 october, mon
mon2500:00+2nw61094100 0.2 1017637
03:00+1nnw71188100 0.3 1018726
06:000nnw7128396 0.1 1021848
09:00+1n71073100 0.2 1024915
12:00+2n795750 0.0 10261068
15:00+3n68475 0.0 10271169
18:00+1nnw366087 0.0 1029157
21:000nw236420 0.0 103069
26 october, tue
tue2600:00−1w33675 0.0 103146
03:00−1wsw377066 0.0 1031154
06:00−1sw4107056 0.0 1030251
09:00+1wsw5126033 0.0 1029395
12:00+5wsw71047100 0.0 1028630
15:00+6wsw6124782 0.0 1026713
18:00+4sw6135485 0.0 1026427
21:00+3sw6135998 0.0 1025374
27 october, wed
wed2700:00+2sw5135986 0.0 1025361
03:00+2sw51360100 0.0 1024361
06:00+1sw51362100 0.0 1023340
09:00+2sw61456100 0.0 1023422
12:00+6sw71445100 0.0 1021622
15:00+7sw71342100 0.0 1019771
18:00+6sw71443100 0.0 1019653
21:00+5sw61342100 0.0 1018673